Vorticity
1 2 1 1 1 0 1 1 -1 1 2 3 2 2 3 4 3 2 5 4 3 4 4 5 3 4 5 4 6 5 6 5 6 6 6 6 6 6 7 8 10 11 12 11 10 8 4 3 3 3 4 4 4 4 4 5 6 8 9 10 12 13 12 9 9 9 8 7 7 8 7 5 4 5 5 4 4 4 4 5 4 4 4 5 4 4 5 6 8 11 11 9 11 12 10 10 11
2 1 2 2 2 0 0 1 0 2 2 2 3 4 5 4 3 3 5 4 4 5 3 4 4 5 3 3 5 4 5 5 5 5 5 6 5 6 7 6 6 9 10 11 12 11 10 7 4 2 3 3 3 5 5 4 4 5 7 8 10 11 12 12 10 10 9 9 8 8 8 7 5 6 6 5 6 4 4 5 5 5 4 4 4 4 5 6 7 7 8 9 10 10 9 10 11
3 3 3 1 2 1 2 3 2 3 2 3 4 4 5 5 5 5 5 5 5 5 3 3 4 6 4 3 5 4 5 5 5 4 4 4 4 5 6 6 6 7 7 8 11 12 13 12 9 6 4 3 2 3 4 5 4 4 5 6 9 9 10 10 10 10 10 9 9 9 9 8 6 6 6 6 6 6 5 6 6 6 6 5 5 5 5 5 6 6 7 7 7 7 7 8 9
3 3 3 2 4 3 3 2 2 3 3 5 4 2 6 7 6 6 5 5 5 5 5 5 4 4 6 5 5 6 5 4 3 2 3 3 3 3 3 5 5 6 6 6 8 8 10 12 13 12 10 6 3 3 3 3 4 5 4 4 6 8 9 10 10 9 9 9 8 8 8 7 7 6 7 8 8 7 7 6 7 7 8 7 6 6 6 5 5 5 6 6 6 6 6 6 6
2 3 2 2 3 2 3 2 2 3 2 3 3 2 7 10 7 6 5 5 5 6 6 5 5 4 7 6 4 6 3 1 2 1 2 3 3 3 3 3 3 3 5 6 7 7 7 8 10 12 13 12 9 6 4 2 3 4 4 5 5 5 6 8 10 10 10 9 8 8 7 7 7 7 7 7 8 7 7 7 7 8 9 9 8 7 6 6 5 5 5 5 5 5 5 5 5
1 3 2 2 3 4 6 4 2 3 3 4 4 6 9 11 8 7 6 6 7 7 7 5 6 5 6 6 5 5 2 2 4 2 1 2 2 2 2 3 3 2 2 3 5 6 6 6 7 8 11 13 14 12 8 4 3 3 3 4 5 5 5 5 6 8 10 10 10 10 9 8 7 8 8 7 7 7 7 7 7 7 8 9 8 7 6 6 6 6 5 5 5 5 5 4 5
2 3 2 4 5 5 6 3 2 2 4 5 6 9 8 9 8 7 7 7 8 8 8 8 8 8 7 7 7 7 5 4 3 2 3 2 0 2 2 1 2 2 1 1 2 3 4 6 6 7 7 9 11 13 13 11 7 4 3 2 3 5 5 5 5 5 6 7 9 10 10 10 9 8 7 7 7 7 6 6 6 6 6 7 7 7 6 5 5 5 6 6 6 6 6 5 5
2 2 1 2 2 4 5 4 1 0 6 5 6 9 4 8 6 4 7 5 7 6 6 8 8 10 11 10 9 9 9 7 5 5 5 4 1 1 2 1 1 2 1 1 1 2 2 2 4 5 6 7 8 9 11 13 13 11 7 4 2 3 4 4 5 5 5 5 5 6 8 8 9 8 7 6 6 6 6 6 6 5 5 5 5 6 6 5 5 5 5 5 5 6 6 5 5
2 3 3 3 2 4 5 5 1 1 10 5 5 7 1 8 4 1 6 4 5 4 3 4 4 6 9 11 11 11 11 10 9 8 8 7 5 2 2 1 1 2 2 1 1 1 1 1 1 2 3 5 6 7 8 9 12 14 13 10 6 4 3 3 3 5 5 5 5 5 5 5 6 7 7 7 6 6 5 5 5 5 5 5 4 4 5 5 5 5 5 4 4 4 4 4 4
3 4 4 4 3 5 6 5 1 2 9 5 6 4 -0 7 3 0 4 3 4 3 3 3 1 2 3 6 7 9 11 11 10 10 9 9 8 6 4 3 1 2 4 3 1 1 2 1 1 1 1 2 3 5 7 7 8 10 12 14 13 10 7 4 3 3 4 4 5 6 5 5 5 5 5 6 6 6 6 6 5 5 5 5 5 4 4 4 5 5 5 5 4 4 4 4 4
4 4 3 3 2 4 7 5 1 3 6 5 6 4 3 6 2 1 2 2 3 2 3 3 2 0 2 3 3 6 8 9 10 10 9 9 9 8 7 6 4 3 4 5 4 2 2 2 2 1 2 2 1 2 3 5 7 7 8 10 12 14 13 11 7 5 3 3 3 4 5 5 5 5 5 5 5 5 5 6 5 5 6 6 6 6 5 5 5 5 5 5 5 5 4 4 4
5 4 3 3 4 6 8 6 3 4 5 4 4 6 8 6 2 2 1 2 4 3 4 3 3 2 3 2 2 5 5 7 11 12 10 9 9 8 8 8 7 5 4 5 5 4 3 3 3 2 2 2 2 1 1 2 3 5 6 7 8 10 12 13 13 11 7 5 3 3 3 4 4 4 5 5 5 5 5 5 5 5 5 5 5 6 6 5 6 5 5 5 5 5 5 4 4
5 3 4 4 6 7 8 7 4 2 3 3 4 5 7 4 3 3 2 4 4 5 6 5 4 4 4 2 4 5 4 7 10 11 11 10 8 7 8 7 8 8 6 5 5 5 5 4 4 4 3 3 3 3 2 1 2 2 3 5 6 7 7 9 11 13 14 12 9 6 3 3 3 3 3 4 4 5 5 5 5 5 5 5 4 4 5 5 5 5 5 5 5 5 5 4 4
4 5 5 5 6 8 8 7 3 1 2 3 3 3 4 5 6 6 6 5 5 7 7 6 5 5 5 4 5 5 4 5 6 7 9 11 10 8 7 7 7 8 8 7 6 6 6 6 5 5 4 4 4 4 4 3 2 2 1 2 3 4 5 6 7 9 11 13 14 13 10 6 4 3 3 3 3 4 4 4 5 5 5 6 5 5 5 5 6 5 6 6 5 5 5 5 5
6 6 4 5 7 9 8 6 3 2 2 2 2 2 6 8 8 9 9 8 6 6 6 6 6 6 5 5 5 5 5 5 5 6 6 9 12 11 8 7 7 7 8 8 7 7 7 7 7 6 6 5 5 5 5 4 3 3 2 2 2 2 2 4 5 6 7 9 11 12 13 13 10 7 5 3 3 3 3 3 3 3 3 4 4 5 5 5 5 5 6 6 6 6 6 6 6
6 5 5 6 8 8 7 6 4 2 2 2 2 4 7 9 9 10 10 10 9 8 8 7 8 8 7 6 5 5 6 6 6 6 5 6 10 14 11 9 8 7 8 8 8 9 8 8 8 8 7 7 6 5 5 5 5 4 3 3 2 2 2 2 2 4 5 6 7 8 10 12 13 13 12 10 7 5 4 3 3 3 3 3 2 2 2 2 2 3 3 3 3 3 3 4 4
8 7 7 7 7 7 6 5 3 2 2 3 4 6 7 7 8 7 6 8 9 10 10 8 10 11 10 9 6 5 5 5 6 6 5 4 7 10 11 10 9 8 8 7 8 8 7 7 8 9 9 9 8 7 6 5 5 4 4 3 3 3 2 2 1 2 3 4 5 6 7 8 9 10 12 13 13 12 10 8 6 4 4 3 3 2 2 2 2 2 2 2 2 2 2 2 3
10 7 6 6 6 5 4 3 2 2 3 4 5 5 6 7 6 5 4 4 4 7 10 11 10 10 10 10 9 6 4 5 6 6 4 2 3 5 7 9 8 8 8 7 7 7 6 6 7 7 8 9 10 10 9 7 6 5 5 4 4 4 4 3 2 2 2 2 2 3 5 6 7 7 8 9 11 12 12 12 11 10 9 7 6 5 4 3 3 3 2 3 2 3 3 3 3
10 7 5 6 5 4 3 3 3 3 4 4 4 5 6 5 5 4 4 3 2 4 8 11 9 7 8 10 11 10 7 5 4 3 2 1 2 1 2 5 5 4 5 6 7 7 8 8 9 8 7 8 9 10 10 10 9 7 7 6 6 6 7 6 5 4 3 2 1 1 2 2 3 5 6 6 7 8 9 9 10 11 11 11 11 10 9 8 7 6 5 4 4 3 3 3 3
10 7 6 5 5 3 2 3 3 4 5 4 4 6 6 5 5 4 5 4 2 3 5 6 7 7 6 8 10 11 10 9 7 6 4 3 4 3 1 2 4 3 2 4 5 6 8 8 9 8 9 10 10 11 11 11 10 10 9 8 8 8 8 8 8 7 5 3 2 1 1 1 2 2 3 4 5 6 6 7 7 8 8 9 10 10 11 10 10 10 9 9 8 7 6 6 6
9 7 6 5 3 1 1 2 3 4 4 4 5 6 6 4 4 4 5 4 2 3 4 3 5 5 5 5 6 7 9 9 10 10 9 6 5 5 4 1 2 3 2 3 4 5 5 5 5 6 7 8 9 10 11 12 11 11 10 10 9 9 9 9 8 8 7 6 4 2 1 1 1 1 1 1 2 3 4 5 5 6 6 7 7 7 8 8 8 9 9 9 9 8 8 8 8
8 6 4 3 2 1 1 1 3 4 4 4 5 6 5 3 4 5 4 4 3 4 3 2 3 4 5 5 4 5 5 5 5 6 9 10 8 8 7 5 3 2 3 3 3 4 4 4 3 3 4 4 4 5 6 8 10 11 11 11 10 9 9 9 8 8 8 7 7 6 4 3 2 2 2 1 1 1 1 2 2 3 3 5 5 6 6 6 6 6 7 6 6 7 7 7 7
7 4 3 2 1 -1 -0 2 3 4 5 4 5 6 4 4 6 5 4 4 4 4 3 2 2 2 3 4 5 6 5 4 3 3 4 6 7 8 8 8 8 8 8 7 5 4 3 3 3 3 3 3 2 2 3 4 5 6 9 10 11 11 10 9 8 8 9 9 8 8 7 6 5 4 4 3 2 2 2 1 1 1 1 2 2 2 3 3 4 5 5 5 5 5 6 6 6
7 5 3 2 -1 -1 -0 2 3 3 5 4 4 6 4 4 6 5 4 5 4 5 4 2 2 1 1 3 5 6 7 7 6 6 5 3 3 4 4 5 6 8 9 9 9 7 5 4 4 3 2 2 2 2 2 3 3 3 5 6 7 10 11 9 9 8 8 9 9 9 9 8 7 7 6 5 5 4 3 2 2 1 1 1 1 1 1 1 2 2 2 3 3 4 4 4 4
7 5 4 2 0 0 1 2 3 4 6 4 5 6 5 6 7 5 5 5 6 6 5 4 3 2 3 5 4 4 6 7 9 9 9 9 8 7 7 6 6 7 7 8 9 8 7 6 5 5 4 3 3 3 2 2 2 3 3 4 4 6 8 9 9 8 7 7 8 8 9 9 8 8 8 7 7 6 6 5 4 2 1 1 1 1 1 1 2 2 2 2 2 2 2 2 3
4 3 3 2 1 2 2 4 4 5 5 4 6 6 5 7 7 6 6 7 8 7 7 6 5 4 4 5 5 6 6 7 8 8 9 10 9 9 8 7 7 7 8 8 8 8 8 7 5 5 4 4 4 3 3 3 3 3 3 3 3 3 5 7 8 8 7 6 6 7 7 7 7 7 7 7 7 7 8 9 9 7 5 3 2 2 2 2 2 3 3 3 3 3 2 2 3
2 2 3 3 4 5 4 4 4 4 5 5 7 7 6 6 6 6 6 7 8 7 7 6 6 5 5 6 7 8 8 8 9 8 8 6 5 5 5 6 6 7 8 9 9 10 9 9 7 6 5 5 5 5 4 4 4 4 4 3 4 4 4 4 6 7 8 7 6 6 6 6 6 6 5 5 6 7 8 10 11 12 11 7 5 4 4 3 3 4 4 4 4 4 4 4 4
4 5 5 5 5 5 4 4 4 6 6 5 7 7 6 7 7 7 6 6 7 6 6 5 7 7 8 9 9 10 10 11 11 11 10 7 4 3 3 4 4 5 7 8 9 10 11 10 9 9 9 7 6 5 5 5 5 5 6 6 5 4 4 4 5 6 7 8 8 7 6 6 6 6 5 4 4 5 7 8 10 12 13 12 10 8 7 6 5 5 5 6 6 6 6 6 6
5 6 6 6 6 6 6 6 7 7 7 6 6 7 8 8 7 6 5 5 6 6 5 6 9 10 11 12 11 11 11 10 10 9 9 8 6 6 5 4 5 6 6 7 8 9 10 9 8 8 10 11 9 8 7 6 6 6 6 7 7 7 6 6 5 5 6 8 9 9 8 7 6 6 5 4 4 4 5 6 8 10 10 11 12 11 10 9 8 7 7 7 7 7 7 7 8
8 8 9 8 8 9 8 8 9 8 8 7 6 7 8 9 7 6 6 6 7 6 4 7 10 11 12 12 12 12 10 8 6 5 6 7 9 9 8 7 6 7 7 8 8 9 10 9 8 7 7 9 10 11 10 9 8 8 8 8 9 9 9 8 7 6 6 6 7 9 10 10 9 8 6 5 4 4 4 4 5 6 8 8 9 9 9 9 9 8 7 7 7 8 8 8 8
9 8 7 6 7 8 8 8 9 8 8 7 7 7 9 10 9 8 7 6 6 6 6 10 10 11 12 12 12 12 7 5 5 6 7 8 9 10 11 11 9 8 8 8 8 9 11 11 10 9 8 9 10 10 10 11 10 8 8 8 8 9 10 10 9 8 7 7 6 6 7 8 9 9 9 9 7 5 4 3 3 3 5 6 7 7 6 6 7 7 7 7 7 8 8 7 8
5 4 4 3 5 6 7 8 7 7 7 7 7 7 9 10 9 8 8 7 7 7 8 9 9 10 11 11 12 10 7 6 7 8 9 10 10 11 11 11 10 9 8 8 9 9 11 12 11 10 10 12 12 11 9 10 10 9 8 8 8 9 9 9 8 8 7 7 7 7 6 5 5 7 9 10 11 10 7 4 3 2 2 3 4 5 5 4 4 5 6 6 7 8 7 7 7
3 4 4 4 5 6 7 9 8 7 7 7 7 6 7 6 5 5 5 5 5 5 5 5 7 10 9 9 10 11 11 10 10 10 10 11 11 12 11 12 12 12 11 10 9 9 11 12 12 11 9 10 11 11 10 8 8 9 9 10 10 9 10 10 10 9 9 8 8 8 8 7 7 8 9 10 11 12 12 9 6 4 3 2 2 3 3 3 4 4 4 4 4 5 6 6 6
2 4 5 4 5 5 6 8 9 8 8 7 8 8 8 7 5 5 6 7 7 8 8 6 7 9 9 10 12 13 14 12 11 11 11 10 10 12 12 12 13 13 14 14 11 10 11 12 13 10 8 7 7 8 9 8 7 6 7 8 10 10 9 10 11 12 12 13 12 11 10 9 9 9 8 7 8 9 12 13 11 8 5 4 3 3 3 3 3 3 2 2 2 2 3 3 4
1 4 6 5 6 7 8 9 9 8 8 8 9 10 10 9 9 10 9 10 11 13 13 11 9 7 7 8 11 13 13 12 11 10 10 10 10 11 10 11 11 10 11 13 15 13 11 12 13 11 8 7 6 4 5 6 7 6 6 6 7 7 7 8 9 10 11 11 12 12 11 10 8 6 5 4 4 5 7 10 13 13 11 8 6 4 4 4 3 3 2 1 0 0 1 1 1
2 4 6 7 8 10 10 10 8 7 7 9 10 9 9 9 10 10 10 11 12 11 12 13 12 11 8 6 6 8 8 9 9 9 8 8 8 9 8 7 7 7 6 6 8 10 11 12 13 13 12 10 9 6 4 5 5 5 7 7 6 5 5 6 6 7 8 9 10 11 12 12 9 5 3 3 4 6 7 7 8 10 12 13 12 9 7 6 4 4 3 2 2 2 1 1 1
4 5 7 8 9 11 12 9 9 7 7 9 9 7 7 9 9 8 9 10 10 9 10 12 12 13 13 11 9 8 6 7 8 7 6 5 5 4 3 2 1 1 2 2 1 2 6 10 11 12 14 13 12 9 7 7 7 6 6 6 6 7 6 5 6 6 6 6 7 8 11 13 12 10 8 7 7 9 11 13 12 10 9 10 12 13 13 11 9 7 5 4 3 3 3 2 1
7 8 9 10 11 11 10 10 9 7 7 9 9 8 10 11 10 8 8 9 8 7 9 10 11 12 13 14 12 10 8 6 6 7 6 5 4 2 0 -1 -2 -3 -1 1 2 2 3 7 10 11 12 13 13 11 9 8 9 10 9 7 5 6 7 7 5 5 5 5 4 3 3 6 8 9 9 9 9 9 10 12 14 14 13 11 10 10 12 13 13 12 10 9 7 6 5 4 4
10 10 9 11 12 10 9 10 9 8 9 9 8 7 8 9 7 5 7 10 8 6 7 9 9 9 10 11 11 10 9 7 6 6 6 5 5 5 5 3 1 -0 -2 -1 1 2 2 4 9 12 13 12 12 12 12 9 8 8 9 9 6 3 2 2 2 2 3 4 4 4 2 2 2 3 4 5 5 5 5 6 8 10 11 12 12 11 10 10 11 12 12 13 12 11 11 9 9
10 10 11 13 11 7 8 9 6 7 7 5 4 2 3 6 4 2 7 9 6 4 7 8 7 7 7 8 8 8 9 8 8 7 7 6 6 6 6 5 5 3 1 -0 -0 1 3 3 5 9 12 13 11 9 9 8 7 6 7 7 7 4 1 -1 -2 -2 -1 1 2 3 4 3 2 1 1 2 2 3 3 4 4 5 6 8 10 11 11 10 9 9 9 10 10 11 12 12 11
11 11 10 9 7 4 6 6 3 3 2 1 2 0 2 5 5 7 11 10 6 6 8 7 6 6 6 5 5 6 6 6 6 6 6 5 5 6 6 5 6 5 3 2 1 1 2 5 6 8 11 12 10 6 3 2 4 6 6 6 6 5 3 2 1 0 0 1 2 2 3 4 4 4 2 1 1 2 2 3 3 3 4 6 7 7 8 8 8 8 8 8 8 8 8 9 9
12 9 6 4 4 4 4 2 1 2 3 4 4 5 5 2 4 10 9 6 6 6 7 7 6 7 6 5 5 5 5 4 5 5 6 6 6 6 6 6 6 6 6 5 5 5 4 5 8 10 12 12 9 5 1 -0 1 0 -2 -2 -2 -3 -2 1 3 6 4 2 2 3 2 3 3 4 5 4 2 2 1 2 2 2 2 4 5 3 2 3 4 5 6 6 7 7 7 8 7
7 4 3 3 4 4 4 5 7 7 6 6 5 7 8 3 7 10 4 3 7 6 7 8 8 8 8 6 3 -0 -1 -0 1 2 4 7 10 11 10 10 8 7 8 8 8 8 7 6 6 7 9 11 10 7 2 -1 -1 -0 -2 -3 -3 -4 -3 -4 -3 4 8 6 3 3 3 4 3 2 3 4 4 3 3 2 1 1 1 2 3 2 0 -0 1 2 2 2 3 3 4 4 5
4 4 4 5 7 7 8 9 9 9 8 6 6 8 9 7 8 7 2 5 8 7 7 7 6 6 3 -1 -4 -4 -2 -1 1 2 3 6 9 11 12 13 12 12 12 11 10 9 8 8 7 6 7 8 9 9 5 1 -1 0 1 1 1 0 1 -1 -5 -3 1 3 5 6 6 5 6 6 4 4 4 4 4 4 3 3 2 2 2 2 1 -1 -1 0 1 1 1 1 1 1 2
6 8 7 9 9 9 10 9 8 10 6 5 9 10 6 4 6 4 3 6 8 7 5 3 3 0 -3 -3 -2 1 3 3 6 8 9 11 14 15 15 14 14 14 14 13 12 11 9 9 8 8 8 8 9 9 7 5 3 1 -1 -1 -0 -1 0 1 -0 -3 -4 -4 -3 2 7 7 5 6 7 7 6 5 5 5 5 5 4 4 3 3 2 0 -1 -1 -0 1 1 1 1 1 1
10 9 8 10 9 7 8 5 6 7 -0 3 11 10 3 -1 3 7 6 6 7 6 4 1 1 0 1 4 5 5 5 5 7 8 9 12 15 15 14 14 13 13 14 13 12 11 10 11 11 9 8 9 10 10 9 7 5 3 2 1 -0 -1 -1 -0 -1 -0 -1 -3 -7 -6 2 9 10 8 7 7 7 6 6 6 6 7 6 5 5 4 4 3 2 1 0 -0 -0 0 1 1 1
11 11 10 10 6 5 4 1 6 1 -6 5 12 7 2 -5 0 10 8 5 4 3 3 1 -1 1 4 6 6 4 4 4 6 6 7 8 7 5 5 6 9 12 13 12 11 10 7 6 9 11 10 8 10 11 13 12 9 7 5 4 3 2 1 0 -1 -1 -0 1 0 -3 -3 3 9 11 9 7 7 6 5 5 5 6 7 6 6 5 5 4 3 3 2 1 1 0 -0 0 0
10 8 7 5 1 3 2 0 5 -4 -6 10 10 3 1 -4 3 10 4 2 4 3 3 -1 -2 1 1 1 3 3 3 4 6 7 9 11 11 11 8 7 8 9 11 11 7 5 6 3 -0 4 8 9 10 11 12 13 13 12 10 8 8 7 5 4 2 1 1 0 3 3 0 -1 3 8 10 7 6 7 7 8 7 6 6 7 7 6 6 5 5 4 3 3 3 2 1 1 -1
5 2 1 2 2 3 -0 -0 4 -1 2 12 7 3 2 -0 7 10 5 6 6 4 3 -1 -0 -0 -3 -1 3 5 7 8 10 10 10 11 12 13 12 12 13 13 14 13 5 -0 5 8 3 -1 4 9 11 12 12 12 11 10 10 9 9 9 8 7 5 4 4 2 3 5 5 3 1 4 9 7 3 4 5 7 9 9 8 8 7 7 6 6 6 5 5 5 5 4 3 2 -0
2 0 1 1 2 2 -0 4 8 5 7 9 5 6 4 4 9 10 8 8 5 3 2 -1 -1 -2 -1 5 8 9 11 12 12 12 10 7 6 7 7 9 12 11 9 10 9 2 -1 7 13 8 2 3 9 13 13 13 10 7 6 6 6 7 7 7 6 4 3 2 2 3 4 7 7 7 9 7 5 6 7 8 10 11 10 9 9 8 8 7 6 5 5 5 5 6 6 4 2
3 3 3 2 6 8 7 9 9 8 9 7 7 8 5 7 10 9 9 7 4 2 -2 -2 0 3 7 10 11 11 11 11 11 10 8 6 5 5 5 5 8 8 6 7 13 12 4 0 4 6 5 7 11 14 13 12 11 10 8 6 4 5 5 6 7 7 5 2 -1 -3 -3 -1 2 6 10 9 9 11 13 14 15 15 15 13 11 9 8 9 9 8 8 6 6 6 6 6 6
4 6 6 6 11 14 10 8 7 8 9 6 9 10 8 11 10 10 9 5 1 -1 -2 3 7 8 10 11 11 11 10 10 9 7 6 5 4 4 4 5 7 9 9 7 8 11 12 7 2 0 6 10 7 6 8 6 3 2 4 6 5 5 7 9 11 11 11 11 8 6 2 -0 -0 1 3 3 7 12 14 15 16 15 16 16 15 13 11 9 9 9 10 9 9 9 7 6 6
9 9 12 12 14 12 9 6 5 10 9 5 12 14 9 8 4 4 3 -3 -2 2 6 11 11 11 13 12 11 10 10 11 9 7 6 5 6 6 7 8 9 8 8 8 7 6 9 10 6 -0 2 9 8 8 9 2 -4 -2 1 5 8 10 13 14 14 14 13 14 14 14 13 10 7 3 1 0 1 3 4 6 8 9 10 12 13 15 15 13 10 8 8 8 9 10 9 9 8
12 14 16 15 11 8 9 7 6 11 8 3 7 6 2 1 -3 -2 1 0 5 11 14 15 14 14 13 11 11 11 11 9 7 7 7 7 7 7 6 7 8 7 5 6 7 5 4 4 6 6 8 12 10 8 5 -4 -5 1 3 5 7 9 12 14 14 14 12 12 11 11 12 12 12 11 10 9 6 2 -1 -2 -2 -1 1 3 5 8 10 12 12 11 9 8 7 7 6 7 8
13 13 11 8 5 5 6 5 2 5 5 2 1 -1 -0 -1 -4 -0 7 8 9 13 16 15 13 12 12 11 11 11 9 8 7 7 7 6 7 8 10 10 10 10 9 10 9 8 10 11 10 8 6 2 -3 -4 -1 -2 -1 3 3 5 7 7 9 11 12 11 9 10 10 10 10 9 10 10 10 10 8 6 5 4 2 -1 -2 -2 0 3 5 7 9 11 12 11 10 9 6 4 4
10 8 5 3 3 3 3 3 4 5 4 3 2 2 3 -2 -6 2 8 5 7 12 14 13 13 14 14 12 11 9 8 7 6 5 4 4 6 8 9 8 8 7 6 7 6 5 7 5 1 -1 -2 -1 -1 2 4 3 3 5 6 9 10 10 9 7 6 4 3 4 6 6 6 5 6 8 8 8 8 7 8 9 9 8 5 3 3 4 5 5 5 6 9 12 13 13 12 10 9
5 4 3 2 2 5 7 4 3 6 6 7 7 4 1 1 3 11 13 11 14 16 13 13 15 14 12 11 9 7 7 8 7 7 7 7 6 5 3 2 2 2 2 4 5 5 5 3 3 4 5 6 7 6 5 4 4 5 7 9 8 7 6 3 2 2 1 2 2 3 4 5 6 8 8 9 10 12 13 13 13 11 10 8 6 4 2 -0 -2 -1 3 6 9 11 13 13 13
-3 -3 -4 -0 4 7 10 4 2 11 10 8 11 2 -3 7 16 15 13 14 16 14 13 17 16 13 12 12 11 9 10 10 9 9 8 7 6 4 3 3 3 4 5 6 4 3 1 1 2 3 4 4 5 5 5 5 5 4 3 3 2 2 2 3 5 6 7 7 7 7 7 7 7 8 8 7 7 9 10 12 12 13 12 13 12 10 7 4 2 2 3 3 4 6 9 10 11
Height
5895 5894 5894 5894 5894 5894 5894 5894 5893 5892 5892 5891 5891 5890 5888 5887 5887 5886 5886 5885 5885 5884 5883 5882 5882 5881 5881 5880 5880 5879 5879 5878 5878 5877 5876 5875 5875 5874 5873 5873 5872 5872 5872 5871 5871 5871 5871 5872 5872 5872 5872 5872 5872 5872 5872 5872 5872 5872 5872 5872 5872 5872 5873 5873 5874 5874 5875 5875 5876 5876 5877 5877 5877 5878 5878 5878 5878 5879 5879 5879 5879 5880 5880 5880 5880 5881 5881 5881 5881 5881 5881 5882 5882 5882 5883 5883 5884
5895 5895 5894 5894 5895 5895 5894 5894 5893 5892 5892 5891 5890 5889 5888 5887 5886 5886 5885 5885 5885 5884 5883 5883 5882 5882 5881 5881 5881 5880 5879 5878 5878 5877 5877 5876 5875 5874 5874 5873 5872 5872 5872 5871 5871 5871 5871 5871 5871 5871 5871 5871 5871 5872 5872 5872 5872 5872 5872 5872 5872 5872 5872 5872 5873 5873 5874 5874 5875 5875 5876 5876 5877 5877 5877 5878 5878 5878 5878 5878 5879 5879 5879 5879 5880 5880 5880 5880 5880 5880 5881 5881 5881 5881 5882 5882 5883
5895 5895 5895 5895 5895 5894 5894 5894 5893 5892 5891 5891 5890 5889 5888 5886 5886 5885 5885 5884 5884 5884 5884 5883 5882 5882 5881 5881 5880 5880 5879 5878 5878 5878 5877 5877 5876 5875 5874 5873 5873 5872 5872 5871 5871 5871 5871 5871 5871 5871 5871 5871 5871 5871 5871 5872 5872 5872 5872 5872 5872 5872 5872 5872 5872 5873 5873 5873 5874 5874 5875 5875 5876 5876 5877 5877 5877 5877 5877 5878 5878 5878 5878 5879 5879 5879 5879 5880 5880 5880 5880 5880 5881 5881 5881 5882 5882
5895 5895 5895 5894 5894 5894 5894 5893 5893 5892 5891 5890 5889 5888 5888 5886 5885 5885 5884 5884 5883 5883 5883 5882 5882 5881 5881 5881 5880 5880 5879 5879 5878 5878 5877 5877 5876 5875 5874 5874 5873 5872 5872 5871 5871 5871 5871 5870 5870 5870 5870 5870 5871 5871 5871 5871 5871 5872 5872 5872 5872 5872 5872 5872 5872 5872 5873 5873 5873 5874 5874 5875 5875 5876 5876 5876 5876 5877 5877 5877 5877 5877 5878 5878 5878 5878 5879 5879 5879 5880 5880 5880 5880 5880 5881 5881 5881
5895 5894 5894 5894 5894 5894 5893 5892 5892 5891 5891 5890 5889 5888 5888 5887 5886 5884 5884 5883 5883 5882 5882 5881 5881 5881 5880 5880 5880 5879 5879 5879 5878 5878 5877 5877 5876 5875 5874 5874 5873 5873 5872 5872 5871 5871 5871 5870 5870 5870 5870 5870 5870 5870 5870 5871 5871 5871 5871 5871 5872 5872 5872 5872 5872 5872 5872 5872 5873 5873 5873 5874 5874 5874 5875 5875 5875 5876 5876 5876 5876 5876 5877 5877 5877 5877 5878 5878 5878 5879 5879 5880 5880 5880 5880 5880 5880
5894 5894 5894 5894 5893 5893 5892 5891 5891 5890 5890 5889 5889 5888 5887 5887 5886 5884 5883 5883 5882 5881 5881 5880 5880 5880 5880 5879 5879 5879 5878 5878 5877 5877 5877 5876 5876 5875 5875 5874 5874 5873 5873 5872 5872 5871 5871 5870 5870 5870 5870 5870 5870 5870 5870 5870 5870 5870 5871 5871 5871 5871 5872 5872 5872 5872 5872 5872 5872 5873 5873 5873 5873 5874 5874 5874 5874 5875 5875 5875 5875 5875 5876 5876 5876 5876 5877 5877 5877 5878 5878 5879 5879 5879 5879 5879 5879
5894 5893 5893 5893 5892 5892 5892 5891 5890 5890 5889 5888 5888 5887 5886 5886 5885 5884 5883 5882 5882 5881 5880 5880 5880 5880 5879 5879 5878 5878 5878 5877 5876 5876 5876 5875 5875 5875 5875 5874 5874 5873 5873 5872 5872 5871 5871 5870 5870 5870 5870 5869 5869 5869 5869 5869 5869 5870 5870 5870 5870 5871 5871 5871 5872 5872 5872 5872 5872 5872 5872 5872 5872 5873 5873 5873 5873 5873 5874 5874 5874 5874 5875 5875 5875 5875 5876 5876 5876 5877 5878 5878 5878 5878 5878 5878 5879
5893 5893 5893 5892 5892 5891 5891 5891 5890 5889 5888 5887 5887 5886 5886 5885 5885 5884 5883 5882 5881 5880 5879 5879 5879 5879 5879 5878 5877 5877 5877 5876 5875 5875 5875 5875 5874 5874 5874 5874 5873 5873 5872 5872 5872 5871 5871 5870 5870 5870 5870 5869 5869 5869 5869 5869 5869 5869 5869 5869 5869 5870 5870 5870 5871 5871 5871 5871 5872 5872 5872 5872 5872 5872 5872 5872 5872 5872 5873 5873 5873 5873 5873 5874 5874 5874 5875 5875 5875 5876 5876 5877 5877 5877 5877 5877 5877
5892 5892 5891 5891 5891 5891 5891 5890 5890 5889 5888 5887 5886 5886 5885 5885 5884 5883 5883 5882 5881 5880 5879 5878 5878 5878 5878 5877 5876 5876 5875 5875 5874 5874 5874 5874 5873 5873 5873 5873 5872 5872 5872 5872 5871 5871 5870 5870 5870 5869 5869 5869 5869 5869 5868 5868 5868 5868 5868 5868 5868 5868 5869 5869 5869 5870 5870 5870 5871 5871 5871 5871 5871 5871 5871 5871 5871 5871 5872 5872 5872 5872 5872 5873 5873 5873 5873 5874 5874 5874 5875 5875 5875 5876 5876 5876 5876
5891 5891 5890 5890 5890 5890 5890 5889 5889 5889 5888 5887 5886 5885 5885 5884 5884 5883 5882 5882 5881 5880 5879 5878 5877 5877 5876 5876 5875 5875 5874 5873 5873 5873 5872 5872 5872 5872 5872 5871 5871 5871 5871 5871 5871 5870 5870 5870 5869 5869 5869 5868 5868 5868 5868 5868 5868 5868 5867 5867 5867 5867 5867 5868 5868 5868 5869 5869 5869 5870 5870 5870 5870 5870 5870 5870 5870 5871 5871 5871 5871 5871 5871 5872 5872 5872 5872 5872 5872 5873 5873 5874 5874 5874 5874 5874 5874
5891 5890 5890 5889 5889 5889 5889 5888 5888 5888 5888 5887 5886 5885 5884 5884 5883 5882 5881 5881 5881 5880 5878 5878 5877 5876 5875 5875 5874 5873 5873 5872 5872 5871 5871 5871 5871 5870 5870 5870 5870 5870 5869 5869 5869 5869 5869 5869 5868 5868 5868 5868 5868 5867 5867 5867 5867 5867 5867 5867 5866 5866 5866 5866 5866 5867 5867 5867 5868 5868 5868 5869 5869 5869 5869 5869 5870 5870 5870 5870 5870 5870 5870 5871 5871 5871 5871 5871 5871 5871 5872 5872 5872 5873 5873 5873 5873
5890 5889 5889 5888 5888 5888 5887 5887 5887 5887 5887 5886 5885 5885 5884 5882 5882 5881 5881 5880 5880 5879 5877 5877 5876 5875 5875 5874 5873 5872 5872 5871 5871 5870 5869 5869 5869 5869 5869 5868 5868 5868 5868 5868 5868 5868 5868 5867 5867 5867 5867 5867 5867 5867 5867 5867 5866 5866 5866 5866 5866 5866 5865 5865 5865 5865 5866 5866 5866 5867 5867 5867 5867 5867 5868 5868 5868 5869 5869 5869 5869 5869 5869 5869 5870 5870 5870 5870 5870 5870 5870 5870 5871 5871 5871 5871 5871
5888 5888 5888 5887 5887 5886 5886 5886 5885 5885 5885 5884 5884 5884 5883 5882 5881 5880 5880 5879 5878 5877 5876 5875 5874 5874 5873 5872 5872 5872 5871 5871 5869 5869 5868 5868 5867 5867 5867 5867 5866 5866 5866 5866 5866 5866 5866 5866 5866 5866 5866 5866 5866 5866 5866 5866 5865 5865 5865 5865 5865 5865 5865 5865 5864 5864 5864 5864 5864 5865 5865 5865 5865 5866 5866 5866 5867 5867 5867 5867 5867 5868 5868 5868 5868 5868 5868 5868 5868 5868 5869 5869 5869 5869 5869 5869 5870
5887 5887 5886 5886 5885 5885 5885 5885 5884 5884 5884 5883 5883 5882 5882 5881 5880 5880 5879 5877 5876 5875 5874 5873 5872 5872 5871 5870 5870 5870 5870 5869 5868 5867 5867 5866 5866 5865 5865 5865 5865 5864 5864 5864 5864 5864 5864 5864 5864 5864 5864 5864 5864 5864 5864 5864 5864 5864 5864 5864 5864 5864 5864 5863 5863 5863 5863 5863 5863 5863 5863 5863 5863 5864 5864 5864 5864 5865 5865 5865 5865 5866 5866 5866 5866 5866 5866 5867 5867 5867 5867 5867 5867 5867 5867 5868 5868
5886 5885 5885 5884 5884 5884 5884 5883 5883 5883 5882 5882 5881 5880 5880 5879 5879 5879 5877 5875 5874 5873 5872 5871 5870 5870 5869 5868 5868 5868 5868 5867 5867 5866 5865 5865 5864 5864 5864 5863 5863 5863 5862 5862 5862 5862 5862 5862 5863 5863 5863 5863 5863 5863 5863 5863 5863 5863 5863 5863 5862 5862 5862 5862 5862 5862 5862 5862 5862 5862 5862 5861 5861 5862 5862 5862 5862 5862 5863 5863 5863 5863 5863 5863 5864 5864 5864 5864 5865 5865 5865 5865 5865 5865 5866 5866 5866
5884 5883 5883 5882 5882 5882 5882 5882 5882 5881 5881 5880 5880 5879 5878 5878 5877 5877 5876 5874 5872 5871 5870 5869 5869 5868 5866 5865 5865 5865 5865 5865 5864 5864 5863 5863 5863 5862 5862 5862 5862 5861 5861 5861 5861 5860 5860 5860 5861 5861 5862 5862 5862 5861 5861 5861 5861 5861 5861 5861 5861 5861 5861 5861 5861 5861 5861 5860 5860 5860 5860 5860 5860 5860 5860 5860 5860 5861 5861 5861 5861 5861 5861 5861 5861 5861 5862 5862 5862 5863 5863 5863 5863 5863 5863 5864 5864
5883 5882 5881 5880 5880 5880 5880 5880 5880 5880 5879 5879 5878 5877 5876 5876 5876 5876 5875 5873 5871 5868 5868 5868 5867 5866 5863 5862 5862 5862 5862 5862 5862 5861 5861 5861 5861 5861 5861 5860 5860 5860 5860 5860 5859 5859 5858 5858 5859 5859 5859 5859 5859 5859 5859 5859 5859 5859 5859 5859 5859 5859 5859 5859 5859 5859 5859 5859 5859 5859 5859 5858 5858 5858 5858 5858 5858 5858 5859 5858 5859 5859 5859 5859 5859 5859 5859 5860 5860 5860 5860 5860 5861 5861 5861 5861 5861
5881 5880 5879 5879 5878 5878 5878 5878 5878 5878 5877 5877 5876 5875 5875 5874 5873 5873 5872 5871 5869 5867 5866 5866 5865 5862 5861 5860 5859 5859 5859 5859 5859 5859 5860 5860 5860 5860 5859 5859 5859 5858 5858 5858 5858 5857 5857 5856 5856 5857 5857 5857 5857 5857 5857 5857 5857 5857 5856 5856 5856 5856 5856 5857 5856 5856 5857 5857 5856 5857 5857 5857 5857 5857 5856 5856 5856 5856 5856 5856 5856 5856 5856 5856 5856 5856 5857 5857 5857 5857 5857 5857 5858 5858 5858 5859 5859
5879 5878 5877 5877 5877 5877 5876 5876 5876 5876 5875 5874 5874 5873 5872 5871 5871 5871 5870 5869 5866 5865 5865 5864 5862 5859 5858 5858 5858 5857 5856 5856 5856 5856 5857 5858 5859 5859 5858 5858 5857 5857 5856 5856 5856 5856 5855 5855 5855 5854 5854 5855 5855 5854 5854 5854 5854 5854 5854 5854 5854 5854 5854 5854 5854 5854 5854 5854 5854 5854 5854 5855 5855 5855 5854 5854 5854 5854 5854 5854 5854 5854 5854 5854 5854 5854 5854 5854 5854 5854 5854 5855 5855 5855 5855 5855 5855
5877 5876 5876 5875 5875 5875 5874 5874 5874 5873 5873 5872 5871 5871 5870 5869 5868 5868 5868 5868 5865 5863 5864 5863 5861 5858 5855 5855 5855 5855 5854 5854 5854 5854 5855 5855 5856 5856 5856 5856 5855 5855 5855 5855 5855 5855 5855 5854 5853 5853 5852 5853 5852 5852 5852 5852 5852 5852 5851 5851 5851 5851 5851 5851 5851 5851 5851 5851 5851 5852 5852 5852 5852 5852 5852 5852 5852 5852 5852 5852 5852 5852 5852 5851 5851 5851 5851 5851 5852 5852 5852 5852 5852 5852 5852 5852 5852
5874 5874 5874 5874 5874 5873 5872 5872 5871 5871 5871 5870 5870 5869 5869 5867 5866 5866 5866 5866 5863 5862 5861 5860 5859 5857 5854 5852 5852 5852 5852 5852 5853 5853 5854 5854 5854 5853 5853 5853 5853 5853 5854 5854 5854 5854 5853 5853 5852 5852 5851 5850 5850 5850 5850 5849 5849 5849 5849 5849 5849 5848 5848 5848 5848 5848 5848 5848 5848 5849 5849 5849 5849 5849 5849 5849 5849 5849 5850 5850 5850 5850 5850 5849 5849 5849 5849 5849 5849 5849 5849 5850 5849 5850 5850 5850 5850
5872 5872 5872 5871 5872 5871 5870 5870 5869 5869 5868 5868 5867 5867 5866 5865 5864 5864 5863 5863 5862 5861 5859 5857 5856 5855 5854 5851 5849 5849 5850 5851 5852 5853 5853 5853 5852 5851 5851 5851 5851 5851 5851 5851 5851 5851 5851 5851 5851 5850 5850 5848 5848 5848 5847 5847 5847 5846 5846 5846 5846 5846 5845 5845 5845 5845 5844 5845 5845 5845 5846 5846 5846 5846 5846 5846 5846 5846 5846 5847 5847 5847 5847 5847 5847 5846 5846 5846 5846 5846 5847 5847 5847 5847 5848 5848 5848
5871 5870 5870 5869 5869 5869 5868 5867 5866 5866 5866 5866 5866 5865 5864 5863 5863 5861 5860 5860 5860 5859 5857 5855 5853 5852 5852 5851 5849 5849 5849 5850 5851 5851 5851 5850 5850 5850 5849 5849 5849 5848 5848 5848 5848 5848 5848 5848 5848 5848 5848 5847 5846 5845 5845 5845 5844 5844 5843 5843 5843 5842 5842 5842 5842 5842 5842 5842 5842 5842 5842 5842 5842 5843 5843 5842 5842 5842 5843 5843 5844 5844 5844 5844 5844 5844 5843 5843 5843 5843 5844 5844 5844 5844 5845 5845 5845
5869 5869 5868 5868 5867 5867 5866 5865 5864 5864 5864 5864 5864 5863 5861 5860 5861 5859 5857 5858 5858 5856 5855 5853 5850 5848 5848 5849 5849 5849 5849 5849 5849 5849 5848 5847 5847 5847 5847 5847 5846 5845 5845 5845 5844 5844 5843 5843 5844 5844 5844 5844 5843 5843 5842 5842 5841 5841 5840 5840 5840 5839 5839 5839 5839 5839 5839 5839 5839 5839 5839 5839 5839 5839 5839 5839 5838 5838 5839 5839 5840 5840 5840 5840 5840 5840 5840 5840 5839 5840 5840 5841 5840 5840 5841 5842 5842
5866 5866 5866 5865 5865 5865 5863 5863 5862 5862 5862 5861 5861 5861 5858 5858 5859 5857 5855 5856 5856 5854 5852 5850 5848 5846 5845 5846 5846 5847 5847 5847 5847 5846 5845 5844 5844 5844 5843 5843 5842 5842 5841 5841 5841 5840 5839 5839 5839 5839 5839 5840 5840 5840 5839 5839 5838 5838 5837 5837 5836 5836 5836 5836 5836 5836 5836 5836 5836 5835 5835 5836 5836 5836 5836 5835 5835 5835 5835 5835 5835 5836 5836 5836 5836 5836 5836 5836 5836 5836 5837 5837 5837 5837 5838 5838 5839
5863 5863 5863 5862 5862 5862 5860 5860 5860 5859 5859 5858 5858 5858 5855 5855 5856 5854 5853 5854 5853 5851 5849 5847 5845 5844 5843 5843 5843 5844 5844 5844 5843 5843 5842 5841 5840 5840 5839 5838 5838 5837 5837 5837 5837 5837 5836 5835 5835 5835 5835 5835 5836 5836 5836 5836 5835 5835 5834 5834 5833 5833 5833 5833 5833 5833 5833 5833 5833 5832 5832 5833 5833 5833 5832 5832 5832 5831 5831 5831 5831 5831 5832 5832 5832 5832 5832 5832 5832 5832 5833 5833 5834 5833 5834 5835 5835
5860 5859 5859 5859 5858 5858 5857 5856 5856 5856 5856 5854 5854 5855 5853 5852 5853 5851 5849 5849 5850 5848 5846 5844 5843 5843 5842 5842 5842 5842 5841 5840 5840 5839 5839 5838 5836 5835 5835 5834 5834 5833 5833 5834 5834 5834 5834 5833 5832 5831 5831 5831 5832 5832 5833 5833 5832 5832 5831 5831 5830 5830 5829 5829 5829 5829 5829 5829 5829 5829 5829 5829 5829 5829 5829 5829 5828 5827 5827 5827 5827 5827 5828 5827 5827 5827 5827 5828 5828 5828 5829 5829 5830 5829 5829 5831 5831
5857 5856 5856 5856 5854 5855 5854 5853 5853 5853 5852 5850 5849 5851 5851 5850 5849 5848 5846 5845 5846 5845 5842 5840 5840 5841 5840 5841 5841 5840 5839 5838 5837 5836 5835 5834 5833 5832 5831 5831 5831 5831 5830 5830 5830 5830 5830 5830 5830 5829 5828 5828 5828 5828 5828 5828 5828 5828 5828 5828 5827 5826 5826 5826 5825 5825 5825 5825 5825 5825 5825 5825 5826 5826 5826 5825 5824 5824 5824 5823 5823 5823 5823 5823 5823 5823 5823 5823 5823 5824 5824 5825 5825 5825 5825 5826 5826
5853 5852 5852 5853 5851 5851 5851 5850 5850 5850 5849 5846 5845 5846 5849 5849 5846 5844 5842 5841 5841 5840 5838 5837 5837 5838 5838 5838 5838 5837 5836 5835 5833 5832 5831 5830 5829 5829 5828 5828 5827 5827 5827 5827 5826 5826 5826 5826 5826 5826 5825 5824 5823 5823 5823 5824 5824 5824 5825 5825 5824 5824 5823 5823 5822 5822 5821 5821 5821 5821 5821 5821 5822 5822 5822 5822 5821 5820 5820 5819 5819 5819 5819 5818 5818 5819 5819 5818 5818 5819 5819 5820 5821 5821 5821 5821 5821
5850 5848 5847 5848 5848 5849 5848 5847 5847 5847 5845 5843 5841 5842 5846 5847 5844 5841 5839 5837 5837 5836 5835 5834 5834 5835 5835 5834 5834 5833 5831 5830 5829 5827 5826 5826 5826 5825 5825 5825 5824 5824 5824 5824 5823 5823 5822 5821 5821 5822 5822 5821 5820 5820 5819 5819 5820 5820 5820 5820 5820 5820 5820 5820 5819 5819 5818 5818 5817 5817 5817 5817 5817 5817 5817 5817 5817 5817 5816 5816 5815 5814 5814 5814 5814 5814 5814 5814 5814 5814 5815 5815 5816 5817 5816 5816 5817
5846 5844 5843 5843 5843 5845 5846 5845 5845 5844 5841 5839 5838 5838 5842 5845 5843 5839 5837 5834 5833 5832 5832 5832 5832 5832 5831 5830 5830 5829 5827 5825 5824 5824 5823 5822 5822 5822 5822 5822 5821 5820 5820 5820 5820 5819 5818 5817 5817 5817 5817 5817 5817 5816 5816 5815 5815 5815 5815 5815 5815 5816 5816 5816 5815 5815 5815 5815 5814 5813 5813 5812 5812 5812 5813 5813 5813 5812 5812 5812 5811 5810 5810 5810 5810 5810 5810 5810 5810 5810 5810 5810 5811 5812 5812 5811 5812
5842 5839 5838 5838 5839 5840 5842 5842 5842 5840 5837 5835 5834 5834 5838 5841 5840 5837 5835 5833 5831 5830 5830 5830 5829 5828 5827 5827 5826 5825 5824 5822 5821 5821 5820 5819 5818 5818 5818 5818 5817 5817 5816 5816 5816 5816 5815 5814 5813 5813 5813 5813 5813 5812 5812 5811 5811 5811 5811 5811 5811 5811 5811 5811 5811 5811 5811 5811 5810 5810 5809 5808 5808 5808 5808 5808 5808 5808 5808 5807 5807 5806 5805 5805 5806 5806 5806 5806 5805 5805 5806 5806 5806 5807 5807 5807 5807
5839 5835 5834 5835 5835 5835 5837 5839 5838 5835 5833 5831 5830 5831 5834 5835 5835 5833 5831 5830 5829 5827 5828 5827 5825 5824 5823 5823 5822 5821 5820 5819 5819 5818 5817 5816 5815 5815 5814 5814 5813 5813 5812 5812 5812 5812 5812 5811 5810 5809 5809 5808 5808 5808 5807 5807 5807 5807 5807 5807 5807 5807 5807 5807 5807 5807 5807 5807 5806 5806 5805 5805 5804 5804 5803 5803 5803 5803 5803 5803 5802 5801 5801 5801 5801 5801 5801 5801 5801 5801 5801 5801 5800 5801 5802 5802 5802
5834 5832 5831 5832 5832 5831 5832 5835 5833 5830 5828 5827 5826 5827 5830 5830 5829 5828 5825 5825 5825 5825 5825 5823 5821 5820 5819 5818 5818 5817 5817 5816 5815 5814 5814 5813 5812 5812 5811 5810 5810 5809 5809 5808 5808 5808 5808 5807 5806 5805 5805 5805 5804 5803 5803 5803 5802 5802 5802 5802 5802 5802 5802 5802 5802 5803 5802 5802 5802 5802 5801 5801 5800 5800 5799 5799 5799 5798 5798 5798 5798 5797 5797 5796 5796 5796 5796 5796 5796 5796 5795 5795 5795 5795 5796 5797 5797
5829 5829 5828 5828 5828 5827 5829 5830 5828 5825 5823 5823 5823 5823 5824 5824 5824 5823 5820 5819 5820 5820 5821 5820 5818 5816 5815 5814 5813 5813 5812 5812 5811 5811 5810 5810 5809 5809 5808 5807 5807 5806 5806 5805 5805 5804 5804 5803 5803 5802 5801 5801 5800 5799 5799 5798 5798 5797 5797 5797 5797 5797 5798 5798 5798 5798 5798 5798 5798 5798 5798 5797 5796 5796 5796 5795 5795 5794 5794 5794 5793 5793 5792 5792 5791 5791 5791 5791 5791 5791 5790 5790 5790 5790 5790 5791 5792
5825 5825 5824 5823 5823 5824 5825 5825 5823 5820 5818 5818 5819 5818 5817 5818 5818 5817 5815 5815 5815 5816 5816 5815 5815 5813 5812 5811 5810 5809 5808 5808 5808 5807 5807 5806 5806 5805 5805 5804 5804 5803 5803 5802 5802 5801 5801 5800 5800 5799 5798 5798 5797 5797 5796 5795 5793 5793 5792 5792 5792 5792 5792 5792 5793 5793 5793 5793 5793 5793 5793 5793 5793 5792 5792 5792 5791 5791 5790 5789 5789 5788 5788 5787 5787 5787 5787 5786 5786 5785 5785 5785 5785 5785 5785 5785 5785
5821 5820 5819 5818 5818 5820 5821 5819 5818 5816 5814 5815 5816 5814 5813 5814 5813 5812 5811 5811 5811 5811 5810 5810 5810 5810 5809 5808 5807 5806 5805 5804 5805 5804 5803 5803 5802 5802 5801 5801 5800 5800 5800 5799 5799 5798 5798 5797 5797 5796 5795 5794 5794 5794 5793 5792 5791 5790 5789 5787 5787 5786 5786 5786 5787 5787 5788 5788 5788 5788 5788 5788 5788 5788 5787 5787 5786 5786 5786 5785 5784 5784 5783 5782 5782 5782 5782 5781 5781 5780 5780 5780 5780 5780 5779 5779 5778
5817 5815 5814 5814 5814 5815 5815 5814 5813 5812 5810 5811 5812 5810 5810 5811 5810 5809 5808 5807 5806 5806 5805 5804 5805 5805 5805 5804 5803 5803 5801 5801 5801 5801 5800 5799 5799 5798 5797 5797 5796 5796 5796 5796 5795 5794 5794 5793 5793 5792 5792 5791 5791 5790 5789 5788 5788 5787 5786 5785 5784 5783 5782 5781 5781 5781 5782 5782 5782 5782 5782 5782 5782 5782 5782 5781 5781 5781 5780 5780 5779 5779 5779 5778 5777 5777 5776 5776 5775 5775 5775 5775 5774 5774 5774 5773 5773
5812 5811 5810 5811 5812 5810 5809 5809 5809 5808 5807 5807 5807 5806 5807 5808 5807 5806 5804 5802 5802 5801 5800 5799 5800 5801 5800 5800 5799 5799 5798 5798 5797 5797 5796 5796 5795 5794 5793 5793 5792 5792 5791 5791 5791 5790 5790 5789 5789 5788 5788 5787 5787 5786 5785 5784 5784 5783 5782 5782 5781 5780 5778 5778 5777 5776 5776 5776 5776 5776 5776 5775 5775 5775 5775 5775 5775 5774 5774 5774 5774 5773 5773 5773 5772 5772 5771 5771 5770 5770 5769 5769 5768 5768 5768 5768 5768
5807 5806 5807 5807 5808 5806 5805 5805 5804 5803 5803 5803 5803 5802 5803 5804 5803 5802 5800 5798 5797 5796 5795 5795 5796 5796 5795 5795 5795 5794 5794 5794 5793 5792 5792 5791 5791 5790 5790 5789 5788 5788 5787 5787 5786 5785 5785 5784 5784 5784 5783 5783 5783 5782 5781 5780 5780 5779 5778 5777 5776 5775 5775 5774 5773 5772 5771 5771 5770 5770 5769 5769 5769 5769 5768 5768 5768 5768 5768 5767 5767 5767 5767 5766 5766 5766 5766 5766 5765 5764 5764 5763 5763 5762 5763 5763 5762
5802 5803 5803 5803 5802 5801 5801 5801 5799 5799 5798 5798 5797 5796 5798 5800 5799 5797 5796 5794 5792 5791 5791 5792 5792 5791 5791 5790 5790 5790 5789 5789 5788 5788 5787 5786 5786 5786 5785 5784 5783 5783 5782 5782 5781 5780 5780 5779 5778 5778 5778 5778 5777 5777 5776 5776 5775 5774 5773 5772 5771 5771 5770 5769 5768 5768 5767 5766 5765 5764 5764 5763 5762 5762 5761 5761 5761 5761 5761 5760 5760 5760 5760 5760 5760 5760 5760 5759 5759 5758 5758 5757 5757 5756 5757 5757 5757
5798 5799 5798 5798 5798 5797 5797 5796 5795 5794 5793 5793 5792 5790 5793 5795 5794 5792 5791 5789 5787 5787 5788 5788 5787 5787 5786 5786 5785 5784 5783 5783 5782 5782 5781 5781 5781 5780 5779 5779 5778 5778 5777 5777 5776 5775 5775 5774 5773 5772 5772 5771 5771 5771 5770 5769 5769 5768 5767 5767 5766 5765 5765 5764 5763 5762 5761 5760 5760 5759 5759 5758 5757 5756 5755 5754 5753 5753 5753 5753 5753 5752 5752 5752 5752 5752 5752 5752 5752 5751 5751 5751 5750 5750 5750 5750 5751
5795 5795 5794 5793 5793 5793 5792 5792 5791 5790 5789 5789 5787 5786 5788 5790 5789 5787 5785 5783 5782 5783 5784 5783 5782 5782 5782 5781 5780 5778 5777 5777 5776 5775 5775 5774 5774 5773 5773 5772 5772 5771 5771 5771 5770 5770 5769 5768 5767 5766 5766 5765 5765 5764 5763 5762 5761 5761 5760 5759 5758 5758 5758 5757 5757 5756 5755 5754 5753 5753 5752 5752 5751 5750 5749 5748 5747 5746 5746 5745 5745 5745 5745 5745 5745 5745 5744 5744 5744 5744 5744 5744 5743 5743 5742 5743 5744
5790 5790 5789 5789 5789 5788 5788 5788 5787 5786 5786 5784 5782 5783 5784 5785 5784 5781 5779 5778 5778 5778 5777 5777 5777 5777 5776 5775 5774 5773 5772 5771 5770 5769 5768 5768 5766 5766 5765 5765 5764 5764 5764 5764 5763 5763 5762 5762 5761 5760 5759 5759 5758 5757 5756 5755 5754 5753 5752 5751 5750 5749 5749 5749 5749 5749 5748 5747 5746 5745 5745 5745 5744 5744 5743 5742 5741 5740 5739 5738 5737 5737 5736 5736 5736 5736 5736 5736 5736 5736 5736 5736 5736 5735 5735 5735 5735
5785 5784 5784 5784 5783 5783 5783 5783 5782 5781 5781 5780 5779 5780 5778 5779 5780 5774 5771 5773 5773 5771 5771 5770 5770 5770 5769 5769 5767 5766 5765 5764 5763 5761 5761 5760 5760 5759 5758 5757 5757 5757 5756 5756 5756 5756 5755 5755 5754 5753 5753 5752 5751 5750 5749 5748 5747 5746 5745 5743 5742 5741 5740 5740 5740 5740 5740 5740 5739 5738 5737 5736 5736 5736 5735 5734 5734 5733 5732 5731 5730 5729 5729 5728 5728 5728 5728 5727 5727 5727 5727 5728 5728 5727 5727 5727 5727
5780 5779 5778 5778 5777 5777 5777 5777 5776 5776 5776 5776 5777 5776 5772 5772 5774 5770 5766 5767 5766 5765 5764 5763 5762 5761 5761 5761 5760 5759 5757 5756 5755 5754 5752 5751 5751 5751 5750 5750 5749 5749 5749 5748 5748 5748 5748 5748 5747 5746 5745 5744 5744 5743 5742 5741 5739 5738 5737 5736 5735 5734 5733 5732 5731 5730 5730 5731 5731 5730 5730 5728 5728 5727 5726 5726 5725 5725 5724 5723 5722 5721 5721 5720 5720 5720 5719 5719 5718 5718 5718 5718 5718 5718 5718 5718 5719
5775 5774 5772 5772 5771 5771 5770 5770 5771 5769 5769 5773 5773 5770 5766 5764 5768 5767 5763 5761 5761 5759 5758 5756 5754 5752 5752 5752 5751 5750 5749 5748 5746 5746 5745 5744 5743 5743 5742 5742 5742 5742 5741 5741 5740 5739 5739 5739 5740 5739 5738 5737 5736 5735 5734 5733 5732 5730 5729 5728 5727 5725 5724 5723 5722 5721 5721 5721 5721 5721 5721 5721 5720 5718 5718 5717 5716 5716 5715 5715 5714 5713 5712 5711 5711 5711 5711 5710 5710 5709 5709 5709 5709 5709 5709 5709 5709
5769 5768 5768 5766 5765 5765 5764 5764 5765 5762 5764 5768 5765 5762 5760 5758 5761 5762 5759 5757 5756 5754 5752 5750 5748 5747 5746 5745 5744 5743 5742 5741 5740 5738 5738 5737 5736 5736 5735 5735 5735 5735 5734 5733 5732 5731 5730 5729 5730 5730 5731 5730 5729 5728 5727 5725 5724 5723 5721 5720 5718 5717 5716 5715 5713 5712 5711 5711 5711 5711 5711 5711 5711 5710 5709 5708 5707 5707 5706 5705 5705 5704 5703 5702 5701 5701 5701 5701 5701 5700 5700 5699 5699 5699 5700 5700 5700
5763 5762 5762 5761 5759 5758 5757 5758 5758 5756 5758 5760 5757 5755 5752 5752 5755 5756 5754 5753 5750 5748 5747 5746 5744 5742 5741 5739 5737 5737 5735 5734 5734 5732 5730 5729 5728 5728 5727 5727 5727 5727 5726 5725 5724 5723 5722 5721 5720 5720 5721 5721 5720 5720 5718 5717 5716 5715 5713 5712 5710 5709 5708 5706 5705 5703 5702 5701 5700 5700 5700 5700 5700 5700 5700 5699 5699 5698 5697 5696 5695 5695 5694 5693 5692 5691 5691 5691 5691 5691 5690 5690 5690 5689 5690 5690 5690
5757 5757 5757 5755 5753 5751 5751 5752 5751 5749 5752 5752 5750 5747 5744 5747 5750 5750 5749 5748 5745 5743 5742 5741 5739 5737 5735 5733 5731 5729 5728 5727 5726 5725 5723 5722 5721 5720 5719 5718 5718 5718 5717 5717 5716 5715 5714 5714 5713 5712 5711 5712 5711 5711 5710 5709 5708 5707 5705 5704 5703 5701 5700 5698 5697 5695 5694 5692 5691 5690 5689 5689 5689 5689 5689 5688 5688 5688 5687 5687 5686 5685 5684 5683 5682 5682 5681 5680 5680 5680 5680 5680 5680 5680 5680 5680 5680
5751 5751 5750 5748 5748 5746 5744 5745 5743 5742 5744 5745 5743 5739 5737 5741 5745 5744 5743 5741 5739 5738 5736 5734 5732 5730 5728 5726 5724 5722 5720 5719 5718 5717 5716 5715 5713 5712 5711 5710 5709 5708 5708 5708 5707 5707 5706 5706 5705 5704 5703 5702 5702 5701 5701 5700 5699 5699 5697 5696 5695 5694 5693 5691 5689 5688 5686 5684 5683 5681 5680 5679 5678 5678 5678 5677 5677 5676 5676 5676 5676 5675 5675 5674 5673 5672 5671 5670 5670 5669 5669 5669 5669 5669 5670 5670 5669
5744 5744 5743 5742 5743 5741 5737 5736 5736 5736 5735 5737 5737 5733 5732 5736 5738 5738 5736 5734 5733 5732 5730 5728 5725 5723 5721 5719 5717 5715 5713 5712 5711 5710 5709 5708 5706 5704 5703 5702 5701 5700 5700 5699 5699 5699 5698 5697 5696 5695 5694 5693 5692 5692 5692 5692 5691 5690 5689 5688 5686 5685 5684 5682 5681 5679 5678 5676 5675 5673 5672 5670 5669 5668 5667 5667 5666 5666 5665 5665 5664 5664 5663 5663 5663 5662 5662 5661 5660 5659 5659 5658 5658 5658 5659 5659 5658
5737 5737 5737 5736 5736 5734 5730 5728 5730 5729 5725 5727 5731 5729 5727 5729 5730 5731 5730 5728 5728 5725 5723 5721 5718 5716 5714 5711 5710 5708 5707 5705 5704 5703 5702 5700 5699 5697 5695 5694 5693 5693 5692 5691 5691 5690 5689 5688 5687 5686 5684 5683 5682 5682 5682 5681 5681 5680 5679 5678 5676 5675 5674 5672 5670 5669 5667 5666 5665 5665 5663 5662 5661 5659 5658 5657 5656 5655 5655 5655 5654 5653 5653 5652 5651 5651 5651 5650 5650 5649 5648 5648 5647 5647 5648 5647 5647
5730 5730 5731 5730 5727 5726 5725 5722 5722 5721 5716 5717 5724 5724 5723 5722 5722 5724 5724 5722 5721 5718 5715 5714 5712 5709 5707 5705 5704 5702 5700 5698 5697 5696 5694 5693 5691 5690 5688 5687 5686 5685 5684 5683 5682 5682 5681 5680 5678 5677 5675 5673 5673 5672 5671 5670 5669 5668 5667 5666 5665 5664 5663 5662 5660 5658 5657 5655 5654 5654 5654 5653 5652 5650 5649 5647 5646 5645 5643 5643 5642 5642 5641 5641 5641 5640 5639 5639 5638 5638 5637 5637 5636 5637 5637 5636 5635
5724 5723 5723 5722 5720 5719 5719 5716 5714 5714 5709 5708 5713 5717 5718 5717 5715 5715 5714 5713 5713 5711 5708 5706 5704 5703 5701 5699 5697 5695 5693 5691 5689 5688 5686 5685 5683 5682 5680 5679 5678 5676 5675 5674 5673 5673 5672 5671 5669 5668 5666 5664 5663 5661 5660 5659 5658 5657 5656 5655 5654 5653 5652 5650 5649 5648 5647 5645 5644 5643 5642 5642 5641 5640 5639 5638 5636 5635 5634 5632 5631 5630 5629 5628 5628 5627 5627 5627 5627 5626 5626 5625 5625 5625 5625 5625 5624
5717 5716 5715 5715 5715 5714 5712 5710 5708 5706 5702 5701 5702 5704 5709 5712 5710 5706 5702 5702 5703 5702 5699 5698 5697 5695 5694 5692 5690 5688 5686 5683 5682 5680 5678 5677 5675 5673 5672 5670 5669 5668 5666 5665 5664 5663 5662 5661 5660 5658 5657 5655 5653 5651 5650 5648 5646 5645 5644 5643 5642 5641 5640 5639 5638 5636 5635 5634 5633 5632 5631 5630 5629 5628 5628 5627 5626 5625 5624 5622 5621 5619 5617 5616 5614 5614 5613 5613 5613 5613 5613 5613 5613 5612 5613 5613 5613
5708 5708 5708 5708 5708 5707 5704 5702 5702 5699 5695 5693 5692 5690 5696 5704 5703 5696 5692 5693 5692 5691 5691 5690 5689 5687 5685 5683 5681 5680 5678 5676 5674 5672 5670 5669 5667 5665 5663 5661 5660 5658 5657 5656 5655 5654 5653 5652 5650 5648 5647 5645 5644 5642 5640 5637 5635 5634 5632 5631 5630 5630 5629 5627 5626 5625 5623 5622 5621 5620 5618 5617 5616 5615 5615 5614 5614 5613 5613 5612 5610 5608 5607 5605 5603 5602 5600 5599 5599 5598 5598 5598 5598 5599 5599 5600 5600
5701 5701 5702 5702 5700 5699 5695 5692 5695 5694 5687 5685 5682 5677 5683 5694 5693 5687 5686 5685 5682 5682 5683 5682 5680 5678 5676 5674 5673 5671 5670 5668 5666 5664 5662 5660 5658 5656 5654 5652 5650 5649 5648 5647 5646 5644 5643 5642 5640 5638 5637 5635 5633 5631 5629 5627 5625 5623 5621 5619 5618 5617 5616 5615 5614 5613 5612 5610 5608 5607 5606 5604 5603 5602 5601 5601 5600 5600 5599 5599 5598 5596 5595 5594 5592 5591 5589 5588 5586 5585 5584 5583 5582 5582 5583 5585 5586